Find Starlink 3308

NORAD ID: 50846 Int'l Des: 2022-001 Owner: SPXS Country: US Constellation: starlink operational
LEOCIRCULAR

Live Position

Loading 3D Globe...

About Starlink 3308

Description loading...

Upcoming Passes

Passes for default location (London). Set your location on the main map for personalized predictions.

Altitude History

Loading altitude history...

Two-Line Element Set

1 50846U 22001AV 26105.43562635 .00004916 00000-0 32697-3 0 9996
2 50846 53.2178 14.2783 0001366 92.1138 268.0010 15.08812704235818
Epoch: Apr 15, 2026 • Age: 18 hours

Current Status

Altitude 541.6 km
Velocity 7.59 km/s
Sub-Earth Point -5.41°S, 80.95°W
Launch Date Jan 6, 2022
Age 4.2 years
Type internet

Technical Details

Classification Payload
Mass 297.00 kg
Dry Mass 275.00 kg
Total Mass 297.00 kg
Length 0.20 m
Diameter 2.80 m
Span 9.00 m
Shape Box + pan
Manufacturer SPXS
Bus Type Starlink
Phase Status In Orbit
Owner/State SPXS/US

Most Searched